This is the latest recevied weather packets stored in our database for station/object EA1HLH-13. If no packets are shown the sender has not sent any weather packets the latest 1 day(s).
| Time | Temp. | Humidity | Pressure | Rain* | Wind** | Luminosity | Snow |
|---|---|---|---|---|---|---|---|
| 1778079140 | 15° C | 78% | 1014.3 hPa | 0 mm | - | - | - |
| 1778074040 | 14.44° C | 76% | 1014.6 hPa | 0 mm | - | - | - |
| 1778070740 | 14.44° C | 77% | 1014.9 hPa | 0 mm | - | - | - |
| 1778069538 | 14.44° C | 79% | 1015 hPa | 0 mm | - | - | - |
| 1778067439 | 13.33° C | 82% | 1015.3 hPa | 0 mm | - | - | - |
| 1778066539 | 12.78° C | 89% | 1015.3 hPa | 0 mm | - | - | - |
| 1778066239 | 12.78° C | 90% | 1015.3 hPa | 0 mm | - | - | - |
| 1778065939 | 12.78° C | 90% | 1015.4 hPa | 0 mm | - | - | - |
| 1778065639 | 13.33° C | 89% | 1015.4 hPa | 0 mm | - | - | - |
| 1778064739 | 13.33° C | 88% | 1015.4 hPa | 0 mm | - | - | - |
| 1778064438 | 13.89° C | 88% | 1015.2 hPa | 0 mm | - | - | - |
| 1778063839 | 13.89° C | 89% | 1015.2 hPa | 0 mm | - | - | - |
| 1778063538 | 13.89° C | 90% | 1015.3 hPa | 0 mm | - | - | - |
| 1778062640 | 12.78° C | 92% | 1015.3 hPa | 0 mm | - | - | - |
| 1778062339 | 12.78° C | 92% | 1015.2 hPa | 0 mm | - | - | - |
| 1778062038 | 12.78° C | 92% | 1015.2 hPa | 0 mm | - | - | - |
| 1778061740 | 12.78° C | 91% | 1015.2 hPa | 0 mm | - | - | - |
| 1778061439 | 12.78° C | 91% | 1015.1 hPa | 0 mm | - | - | - |
| 1778060239 | 12.78° C | 92% | 1015.2 hPa | 0 mm | - | - | - |
| 1778059938 | 12.78° C | 94% | 1015.1 hPa | 0 mm | - | - | - |
| 1778059040 | 12.22° C | 96% | 1015.2 hPa | 0 mm | - | - | - |
| 1778058739 | 12.22° C | 96% | 1015 hPa | 0 mm | - | - | - |
| 1778058138 | 12.22° C | 97% | 1015.1 hPa | 0 mm | - | - | - |
| 1778057838 | 12.22° C | 98% | 1015 hPa | 0 mm | - | - | - |
| 1778057238 | 12.22° C | 98% | 1015.1 hPa | 0 mm | - | - | - |
* Rain latest hour (hover to see other rain measurements)
** Current wind speed in m/s (hover to see current wind gust speed)